"Period start","avg(HW err(1)/warn(2) (#))","avg(Visibility (m))","avg(Weather code (#))","avg(Precip intensity (mm/h))","min(HW err(1)/warn(2) (#))","max(HW err(1)/warn(2) (#))","std(HW err(1)/warn(2) (#))","med(HW err(1)/warn(2) (#))","min(Visibility (m))","max(Visibility (m))","std(Visibility (m))","med(Visibility (m))","min(Weather code (#))","max(Weather code (#))","std(Weather code (#))","med(Weather code (#))","min(Precip intensity (mm/h))","max(Precip intensity (mm/h))","std(Precip intensity (mm/h))","med(Precip intensity (mm/h))"
2014-07-15 00:00:00,0,50000,0,0.00,0,0,0,0,50000,50000,0,50000,0,0,0,0,0.00,0.00,0.00,0.00
2014-07-15 00:10:00,0,32737,0,0.00,0,0,0,0,5457,50000,17634,39683,0,0,0,0,0.00,0.00,0.00,0.00
2014-07-15 00:20:00,0,10096,6,0.00,0,0,0,0,6541,16759,3550,8168,0,10,5,10,0.00,0.00,0.00,0.00
2014-07-15 00:30:00,0,16366,5,0.00,0,0,0,0,12889,20377,2326,16256,0,10,5,5,0.00,0.00,0.00,0.00
2014-07-15 00:40:00,0,16240,0,0.00,0,0,0,0,11450,20347,2848,16373,0,0,0,0,0.00,0.00,0.00,0.00
2014-07-15 00:50:00,0,16869,0,0.00,0,0,0,0,11703,24466,3974,17120,0,0,0,0,0.00,0.00,0.00,0.00
2014-07-15 01:00:00,0,12168,0,0.00,0,0,0,0,9945,19831,2919,10765,0,0,0,0,0.00,0.00,0.00,0.00
2014-07-15 01:10:00,0,12547,0,0.00,0,0,0,0,8947,18480,3167,11702,0,0,0,0,0.00,0.00,0.00,0.00
2014-07-15 01:20:00,0,9297,0,0.00,0,0,0,0,7671,11954,1253,9278,0,0,0,0,0.00,0.00,0.00,0.00
2014-07-15 01:30:00,0,11076,7,0.00,0,0,0,0,6689,14584,2305,11166,0,10,5,10,0.00,0.00,0.00,0.00
2014-07-15 01:40:00,0,7037,8,0.00,0,0,0,0,3795,9871,2064,7502,0,10,4,10,0.00,0.00,0.00,0.00
2014-07-15 01:50:00,0,5981,10,0.00,0,0,0,0,4535,8251,1064,5700,10,10,0,10,0.00,0.00,0.00,0.00
2014-07-15 02:00:00,0,8026,10,0.00,0,0,0,0,5865,12255,2105,7166,10,10,0,10,0.00,0.00,0.00,0.00
2014-07-15 02:10:00,0,13726,10,0.00,0,0,0,0,9516,19819,3387,12502,10,10,0,10,0.00,0.00,0.00,0.00
2014-07-15 02:20:00,0,11901,0,0.00,0,0,0,0,8190,23240,4473,10440,0,0,0,0,0.00,0.00,0.00,0.00
2014-07-15 02:30:00,0,15747,0,0.00,0,0,0,0,13340,17998,1557,15965,0,0,0,0,0.00,0.00,0.00,0.00
2014-07-15 02:40:00,0,17418,0,0.00,0,0,0,0,7995,32674,7805,14402,0,0,0,0,0.00,0.00,0.00,0.00
2014-07-15 02:50:00,0,24298,0,0.00,0,0,0,0,9168,35618,9788,26488,0,0,0,0,0.00,0.00,0.00,0.00
2014-07-15 03:00:00,0,18396,0,0.00,0,0,0,0,7828,32004,7505,17432,0,0,0,0,0.00,0.00,0.00,0.00
2014-07-15 03:10:00,0,36050,0,0.00,0,0,0,0,18148,50000,11056,35080,0,0,0,0,0.00,0.00,0.00,0.00
2014-07-15 03:20:00,0,45787,0,0.00,0,0,0,0,40972,50000,3547,46088,0,0,0,0,0.00,0.00,0.00,0.00
2014-07-15 03:30:00,0,46972,0,0.00,0,0,0,0,35361,50000,5302,49434,0,0,0,0,0.00,0.00,0.00,0.00
2014-07-15 03:40:00,0,48634,0,0.00,0,0,0,0,45324,50000,1748,50000,0,0,0,0,0.00,0.00,0.00,0.00
2014-07-15 03:50:00,0,49276,0,0.00,0,0,0,0,43964,50000,1807,50000,0,0,0,0,0.00,0.00,0.00,0.00
2014-07-15 04:00:00,0,48643,0,0.00,0,0,0,0,43884,50000,2039,50000,0,0,0,0,0.00,0.00,0.00,0.00
2014-07-15 04:10:00,0,47606,0,0.00,0,0,0,0,38812,50000,3778,49974,0,0,0,0,0.00,0.00,0.00,0.00
2014-07-15 04:20:00,0,47896,0,0.00,0,0,0,0,36722,50000,3902,49892,0,0,0,0,0.00,0.00,0.00,0.00
2014-07-15 04:30:00,0,49757,0,0.00,0,0,0,0,47928,50000,619,50000,0,0,0,0,0.00,0.00,0.00,0.00
2014-07-15 04:40:00,1,47986,0,0.00,0,2,1,2,42680,50000,2755,50000,0,0,0,0,0.00,0.00,0.00,0.00
2014-07-15 04:50:00,1,49905,0,0.00,0,2,1,2,49248,50000,227,50000,0,0,0,0,0.00,0.00,0.00,0.00
2014-07-15 05:00:00,2,46396,0,0.00,0,2,1,2,35060,50000,4740,48574,0,0,0,0,0.00,0.00,0.00,0.00
2014-07-15 05:10:00,0,48715,0,0.00,0,2,1,0,45974,50000,1505,49376,0,0,0,0,0.00,0.00,0.00,0.00
2014-07-15 05:20:00,0,47979,0,0.00,0,0,0,0,41084,50000,3203,50000,0,0,0,0,0.00,0.00,0.00,0.00
2014-07-15 05:30:00,0,46027,0,0.00,0,0,0,0,35503,50000,4846,48724,0,0,0,0,0.00,0.00,0.00,0.00
2014-07-15 05:40:00,0,49617,0,0.00,0,0,0,0,46641,50000,1002,50000,0,0,0,0,0.00,0.00,0.00,0.00
2014-07-15 05:50:00,1,49018,0,0.00,0,2,1,1,42453,50000,2291,50000,0,0,0,0,0.00,0.00,0.00,0.00
2014-07-15 06:00:00,0,46617,0,0.00,0,0,0,0,42347,50000,3060,46364,0,0,0,0,0.00,0.00,0.00,0.00
2014-07-15 06:10:00,0,48470,0,0.00,0,0,0,0,41276,50000,2727,50000,0,0,0,0,0.00,0.00,0.00,0.00
2014-07-15 06:20:00,0,49861,0,0.00,0,0,0,0,49136,50000,281,50000,0,0,0,0,0.00,0.00,0.00,0.00
2014-07-15 06:30:00,0,46225,0,0.00,0,0,0,0,41815,50000,2736,46087,0,0,0,0,0.00,0.00,0.00,0.00
2014-07-15 06:40:00,0,47512,0,0.00,0,0,0,0,41843,50000,2505,48070,0,0,0,0,0.00,0.00,0.00,0.00
2014-07-15 06:50:00,0,45566,0,0.00,0,0,0,0,36243,50000,4548,47305,0,0,0,0,0.00,0.00,0.00,0.00
2014-07-15 07:00:00,0,49800,0,0.00,0,0,0,0,48001,50000,600,50000,0,0,0,0,0.00,0.00,0.00,0.00
2014-07-15 07:10:00,0,49007,0,0.00,0,0,0,0,46328,50000,1160,49313,0,0,0,0,0.00,0.00,0.00,0.00
2014-07-15 07:20:00,0,49364,0,0.00,0,0,0,0,46652,50000,1093,50000,0,0,0,0,0.00,0.00,0.00,0.00
2014-07-15 07:30:00,0,49610,0,0.00,0,0,0,0,47920,50000,783,50000,0,0,0,0,0.00,0.00,0.00,0.00
2014-07-15 07:40:00,0,49573,0,0.00,0,0,0,0,46838,50000,970,50000,0,0,0,0,0.00,0.00,0.00,0.00
2014-07-15 07:50:00,0,47682,0,0.00,0,0,0,0,42475,50000,2420,48022,0,0,0,0,0.00,0.00,0.00,0.00
2014-07-15 08:00:00,0,48198,0,0.00,0,0,0,0,39640,50000,3113,50000,0,0,0,0,0.00,0.00,0.00,0.00
2014-07-15 08:10:00,0,50000,0,0.00,0,0,0,0,50000,50000,0,50000,0,0,0,0,0.00,0.00,0.00,0.00
2014-07-15 08:20:00,2,47352,0,0.00,0,2,1,2,39530,50000,3754,49934,0,0,0,0,0.00,0.00,0.00,0.00
2014-07-15 08:30:00,2,48567,0,0.00,2,2,0,2,38363,50000,3495,50000,0,0,0,0,0.00,0.00,0.00,0.00
2014-07-15 08:40:00,2,47689,0,0.00,2,2,0,2,37735,50000,3784,49623,0,0,0,0,0.00,0.00,0.00,0.00
2014-07-15 08:50:00,2,48336,0,0.00,0,2,1,2,43819,50000,2399,49861,0,0,0,0,0.00,0.00,0.00,0.00
2014-07-15 09:00:00,2,49168,0,0.00,0,2,1,2,46782,50000,1190,50000,0,0,0,0,0.00,0.00,0.00,0.00
2014-07-15 09:10:00,2,48650,0,0.00,2,2,0,2,45811,50000,1703,50000,0,0,0,0,0.00,0.00,0.00,0.00
2014-07-15 09:20:00,1,50000,0,0.00,0,2,1,0,50000,50000,0,50000,0,0,0,0,0.00,0.00,0.00,0.00
2014-07-15 09:30:00,2,49488,0,0.00,0,2,1,2,47028,50000,945,50000,0,0,0,0,0.00,0.00,0.00,0.00
2014-07-15 09:40:00,2,48180,0,0.00,0,2,1,2,42637,50000,2469,49418,0,0,0,0,0.00,0.00,0.00,0.00
2014-07-15 09:50:00,2,50000,0,0.00,0,2,1,2,50000,50000,0,50000,0,0,0,0,0.00,0.00,0.00,0.00
2014-07-15 10:00:00,2,49568,0,0.00,2,2,0,2,47784,50000,864,50000,0,0,0,0,0.00,0.00,0.00,0.00
2014-07-15 10:10:00,2,49303,0,0.00,2,2,0,2,46462,50000,1235,50000,0,0,0,0,0.00,0.00,0.00,0.00
2014-07-15 10:20:00,2,49760,0,0.00,2,2,0,2,47599,50000,720,50000,0,0,0,0,0.00,0.00,0.00,0.00
2014-07-15 10:30:00,2,50000,0,0.00,2,2,0,2,50000,50000,0,50000,0,0,0,0,0.00,0.00,0.00,0.00
2014-07-15 10:40:00,2,50000,0,0.00,2,2,0,2,50000,50000,0,50000,0,0,0,0,0.00,0.00,0.00,0.00
2014-07-15 10:50:00,2,49327,0,0.00,2,2,0,2,46121,50000,1259,50000,0,0,0,0,0.00,0.00,0.00,0.00
2014-07-15 11:00:00,2,49729,0,0.00,2,2,0,2,48128,50000,590,50000,0,0,0,0,0.00,0.00,0.00,0.00
2014-07-15 11:10:00,2,46028,0,0.00,2,2,0,2,28269,50000,7209,49920,0,0,0,0,0.00,0.00,0.00,0.00
2014-07-15 11:20:00,2,48595,0,0.00,2,2,0,2,42599,50000,2691,50000,0,0,0,0,0.00,0.00,0.00,0.00
2014-07-15 11:30:00,2,46603,0,0.00,2,2,0,2,36483,50000,4409,49122,0,0,0,0,0.00,0.00,0.00,0.00
2014-07-15 11:40:00,2,45937,0,0.00,2,2,0,2,38794,50000,3728,46179,0,0,0,0,0.00,0.00,0.00,0.00
2014-07-15 11:50:00,2,48343,0,0.00,2,2,0,2,41192,50000,3088,50000,0,0,0,0,0.00,0.00,0.00,0.00
2014-07-15 12:00:00,2,46823,0,0.00,2,2,0,2,32804,50000,5392,50000,0,0,0,0,0.00,0.00,0.00,0.00
2014-07-15 12:10:00,2,49372,0,0.00,2,2,0,2,44479,50000,1647,50000,0,0,0,0,0.00,0.00,0.00,0.00
2014-07-15 12:20:00,2,49490,0,0.00,2,2,0,2,44901,50000,1530,50000,0,0,0,0,0.00,0.00,0.00,0.00
2014-07-15 12:30:00,2,49418,0,0.00,2,2,0,2,46356,50000,1100,50000,0,0,0,0,0.00,0.00,0.00,0.00
2014-07-15 12:40:00,2,49960,0,0.00,2,2,0,2,49597,50000,121,50000,0,0,0,0,0.00,0.00,0.00,0.00
2014-07-15 12:50:00,2,49278,0,0.00,2,2,0,2,47402,50000,1107,50000,0,0,0,0,0.00,0.00,0.00,0.00
2014-07-15 13:00:00,2,48908,0,0.00,2,2,0,2,44554,50000,1686,50000,0,0,0,0,0.00,0.00,0.00,0.00
2014-07-15 13:10:00,2,50000,0,0.00,2,2,0,2,50000,50000,0,50000,0,0,0,0,0.00,0.00,0.00,0.00
2014-07-15 13:20:00,2,49868,0,0.00,2,2,0,2,48679,50000,396,50000,0,0,0,0,0.00,0.00,0.00,0.00
2014-07-15 13:30:00,2,50000,0,0.00,2,2,0,2,50000,50000,0,50000,0,0,0,0,0.00,0.00,0.00,0.00
2014-07-15 13:40:00,2,50000,0,0.00,2,2,0,2,50000,50000,0,50000,0,0,0,0,0.00,0.00,0.00,0.00
2014-07-15 13:50:00,2,50000,0,0.00,2,2,0,2,50000,50000,0,50000,0,0,0,0,0.00,0.00,0.00,0.00
2014-07-15 14:00:00,2,50000,0,0.00,2,2,0,2,50000,50000,0,50000,0,0,0,0,0.00,0.00,0.00,0.00
2014-07-15 14:10:00,2,50000,0,0.00,2,2,0,2,50000,50000,0,50000,0,0,0,0,0.00,0.00,0.00,0.00
2014-07-15 14:20:00,2,50000,0,0.00,2,2,0,2,50000,50000,0,50000,0,0,0,0,0.00,0.00,0.00,0.00
2014-07-15 14:30:00,2,50000,0,0.00,2,2,0,2,50000,50000,0,50000,0,0,0,0,0.00,0.00,0.00,0.00
2014-07-15 14:40:00,0,50000,0,0.00,0,0,0,0,50000,50000,0,50000,0,0,0,0,0.00,0.00,0.00,0.00
2014-07-15 14:50:00,0,50000,0,0.00,0,0,0,0,50000,50000,0,50000,0,0,0,0,0.00,0.00,0.00,0.00
2014-07-15 15:00:00,0,50000,0,0.00,0,0,0,0,50000,50000,0,50000,0,0,0,0,0.00,0.00,0.00,0.00
2014-07-15 15:10:00,0,50000,0,0.00,0,0,0,0,50000,50000,0,50000,0,0,0,0,0.00,0.00,0.00,0.00
2014-07-15 15:20:00,0,50000,0,0.00,0,0,0,0,50000,50000,0,50000,0,0,0,0,0.00,0.00,0.00,0.00
2014-07-15 15:30:00,2,50000,0,0.00,0,2,1,2,50000,50000,0,50000,0,0,0,0,0.00,0.00,0.00,0.00
2014-07-15 15:40:00,2,50000,0,0.00,2,2,0,2,50000,50000,0,50000,0,0,0,0,0.00,0.00,0.00,0.00
2014-07-15 15:50:00,2,50000,0,0.00,0,2,1,2,50000,50000,0,50000,0,0,0,0,0.00,0.00,0.00,0.00
2014-07-15 16:00:00,0,50000,0,0.00,0,2,1,0,50000,50000,0,50000,0,0,0,0,0.00,0.00,0.00,0.00
2014-07-15 16:10:00,0,50000,0,0.00,0,0,0,0,50000,50000,0,50000,0,0,0,0,0.00,0.00,0.00,0.00
2014-07-15 16:20:00,1,50000,0,0.00,0,2,1,0,50000,50000,0,50000,0,0,0,0,0.00,0.00,0.00,0.00
2014-07-15 16:30:00,1,50000,0,0.00,0,2,1,2,50000,50000,0,50000,0,0,0,0,0.00,0.00,0.00,0.00
2014-07-15 16:40:00,0,50000,0,0.00,0,0,0,0,50000,50000,0,50000,0,0,0,0,0.00,0.00,0.00,0.00
2014-07-15 16:50:00,0,49624,0,0.00,0,0,0,0,46245,50000,1126,50000,0,0,0,0,0.00,0.00,0.00,0.00
2014-07-15 17:00:00,0,50000,0,0.00,0,0,0,0,50000,50000,0,50000,0,0,0,0,0.00,0.00,0.00,0.00
2014-07-15 17:10:00,0,50000,0,0.00,0,0,0,0,50000,50000,0,50000,0,0,0,0,0.00,0.00,0.00,0.00
2014-07-15 17:20:00,0,49885,0,0.00,0,0,0,0,48849,50000,345,50000,0,0,0,0,0.00,0.00,0.00,0.00
2014-07-15 17:30:00,0,50000,0,0.00,0,0,0,0,50000,50000,0,50000,0,0,0,0,0.00,0.00,0.00,0.00
2014-07-15 17:40:00,0,50000,0,0.00,0,0,0,0,50000,50000,0,50000,0,0,0,0,0.00,0.00,0.00,0.00
2014-07-15 17:50:00,0,50000,0,0.00,0,0,0,0,50000,50000,0,50000,0,0,0,0,0.00,0.00,0.00,0.00
2014-07-15 18:00:00,0,50000,0,0.00,0,0,0,0,50000,50000,0,50000,0,0,0,0,0.00,0.00,0.00,0.00
2014-07-15 18:10:00,0,50000,0,0.00,0,0,0,0,50000,50000,0,50000,0,0,0,0,0.00,0.00,0.00,0.00
2014-07-15 18:20:00,0,49908,0,0.00,0,2,1,0,49083,50000,275,50000,0,0,0,0,0.00,0.00,0.00,0.00
2014-07-15 18:30:00,1,50000,0,0.00,0,2,1,0,50000,50000,0,50000,0,0,0,0,0.00,0.00,0.00,0.00
2014-07-15 18:40:00,0,50000,0,0.00,0,0,0,0,50000,50000,0,50000,0,0,0,0,0.00,0.00,0.00,0.00
2014-07-15 18:50:00,0,50000,0,0.00,0,0,0,0,50000,50000,0,50000,0,0,0,0,0.00,0.00,0.00,0.00
2014-07-15 19:00:00,0,50000,0,0.00,0,0,0,0,50000,50000,0,50000,0,0,0,0,0.00,0.00,0.00,0.00
2014-07-15 19:10:00,0,50000,0,0.00,0,0,0,0,50000,50000,0,50000,0,0,0,0,0.00,0.00,0.00,0.00
2014-07-15 19:20:00,0,49536,0,0.00,0,0,0,0,47669,50000,929,50000,0,0,0,0,0.00,0.00,0.00,0.00
2014-07-15 19:30:00,0,50000,24,0.01,0,0,0,0,50000,50000,0,50000,0,61,30,0,0.00,0.05,0.02,0.00
2014-07-15 19:40:00,0,50000,0,0.00,0,0,0,0,50000,50000,0,50000,0,0,0,0,0.00,0.00,0.00,0.00
2014-07-15 19:50:00,0,50000,0,0.00,0,0,0,0,50000,50000,0,50000,0,0,0,0,0.00,0.00,0.00,0.00
2014-07-15 20:00:00,0,49818,0,0.00,0,0,0,0,48766,50000,392,50000,0,0,0,0,0.00,0.00,0.00,0.00
2014-07-15 20:10:00,0,50000,0,0.00,0,0,0,0,50000,50000,0,50000,0,0,0,0,0.00,0.00,0.00,0.00
2014-07-15 20:20:00,0,50000,0,0.00,0,0,0,0,50000,50000,0,50000,0,0,0,0,0.00,0.00,0.00,0.00
2014-07-15 20:30:00,0,50000,0,0.00,0,0,0,0,50000,50000,0,50000,0,0,0,0,0.00,0.00,0.00,0.00
2014-07-15 20:40:00,0,50000,0,0.00,0,0,0,0,50000,50000,0,50000,0,0,0,0,0.00,0.00,0.00,0.00
2014-07-15 20:50:00,0,50000,0,0.00,0,0,0,0,50000,50000,0,50000,0,0,0,0,0.00,0.00,0.00,0.00
2014-07-15 21:00:00,0,50000,0,0.00,0,0,0,0,50000,50000,0,50000,0,0,0,0,0.00,0.00,0.00,0.00
2014-07-15 21:10:00,0,49827,0,0.00,0,0,0,0,48273,50000,518,50000,0,0,0,0,0.00,0.00,0.00,0.00
2014-07-15 21:20:00,0,49619,0,0.00,0,0,0,0,46190,50000,1143,50000,0,0,0,0,0.00,0.00,0.00,0.00
2014-07-15 21:30:00,0,49849,0,0.00,0,0,0,0,49102,50000,278,50000,0,0,0,0,0.00,0.00,0.00,0.00
2014-07-15 21:40:00,0,50000,0,0.00,0,0,0,0,50000,50000,0,50000,0,0,0,0,0.00,0.00,0.00,0.00
2014-07-15 21:50:00,0,42107,43,2.58,0,0,0,0,24327,50000,9047,45676,0,61,28,61,0.00,7.15,3.02,1.10
2014-07-15 22:00:00,0,43256,61,0.72,0,0,0,0,33442,50000,6272,44060,61,61,0,61,0.00,2.20,0.77,0.30
2014-07-15 22:10:00,0,50000,6,0.00,0,0,0,0,50000,50000,0,50000,0,61,18,0,0.00,0.00,0.00,0.00
2014-07-15 22:20:00,0,48145,0,0.00,0,0,0,0,41807,50000,2599,49630,0,0,0,0,0.00,0.00,0.00,0.00
2014-07-15 22:30:00,0,49831,0,0.00,0,0,0,0,48306,50000,508,50000,0,0,0,0,0.00,0.00,0.00,0.00
2014-07-15 22:40:00,0,49990,0,0.00,0,0,0,0,49898,50000,31,50000,0,0,0,0,0.00,0.00,0.00,0.00
2014-07-15 22:50:00,0,49244,0,0.00,0,0,0,0,47415,50000,978,50000,0,0,0,0,0.00,0.00,0.00,0.00
2014-07-15 23:00:00,0,50000,0,0.00,0,0,0,0,50000,50000,0,50000,0,0,0,0,0.00,0.00,0.00,0.00
2014-07-15 23:10:00,0,49100,0,0.00,0,0,0,0,43920,50000,1934,50000,0,0,0,0,0.00,0.00,0.00,0.00
2014-07-15 23:20:00,0,49755,0,0.00,0,0,0,0,48172,50000,559,50000,0,0,0,0,0.00,0.00,0.00,0.00
2014-07-15 23:30:00,0,49720,0,0.00,0,0,0,0,47287,50000,811,50000,0,0,0,0,0.00,0.00,0.00,0.00
2014-07-15 23:40:00,0,48704,0,0.00,0,0,0,0,44352,50000,2164,50000,0,0,0,0,0.00,0.00,0.00,0.00
2014-07-15 23:50:00,0,34380,31,4.46,0,0,0,0,11275,50000,15685,38942,0,62,31,30,0.00,17.90,6.66,0.07
